User: anonymous   Login
Location: Unspecified
(0.0000°N, 0.0000°E)
Time: 10:38:02
(UTC+00:00)
Language:

RISAT 1 - Orbit

View from above orbital plane
View from above orbital plane
View from above satellite
View from above satellite

Ground track
Ground track

The orbit data is extracted from the following two-line orbital elements,

1 38248U 12017A   18020.75525464  .00000744  00000-0  50495-4 0  9997
2 38248  97.5733  30.6827 0005433  35.4437  51.8394 15.09399620316057
Epoch (UTC): 20 January 2018 18:07:34
Eccentricity: 0.0005433
inclination: 97.5733°
perigee height: 534 km
apogee height: 542 km
right ascension of ascending node: 30.6827°
argument of perigee: 35.4437°
revolutions per day: 15.09399620
mean anomaly at epoch: 51.8394°
orbit number at epoch: 31605

The dashed part of the orbit path shows where the satellite is in the earth's shadow,  

DLR